Probability
0 0 42 35 39 26 23 23 23 23 23 23 23 23 23 16 13 10 6 6 6 6 3 6 3 3 0 0 0 0 0 0 0 0 0 0 0 0 0 0 0 0 0
0 0 45 39 29 29 26 23 23 23 23 23 23 23 19 16 10 6 6 6 6 6 3 3 0 0 0 0 0 0 0 0 0 0 0 0 0 0 0 0 0 0 0
0 0 29 35 32 29 23 16 19 19 23 23 23 16 16 10 6 6 6 6 0 0 0 0 0 0 0 0 0 0 0 0 0 0 0 0 0 0 0 0 0 0 0
0 0 19 39 35 39 19 19 16 16 16 13 13 10 6 6 6 6 0 0 0 0 0 0 0 0 0 0 0 0 0 0 0 0 0 0 0 0 0 0 0 0 0
0 0 16 42 32 29 16 16 16 13 13 13 6 6 6 6 6 3 0 0 0 0 0 0 0 0 0 0 0 0 0 0 0 0 0 0 0 0 0 0 0 0 0
0 0 13 35 29 23 16 16 16 13 13 6 6 6 6 3 0 0 0 0 0 0 0 0 0 0 0 0 0 0 0 0 0 0 0 0 0 0 0 0 0 0 0
0 0 13 32 32 26 16 16 16 13 10 6 6 3 3 0 0 0 0 0 0 0 0 0 0 0 0 0 0 0 0 0 0 0 0 0 0 0 0 0 0 0 0
0 0 13 29 26 16 13 13 13 10 10 6 3 3 0 0 0 0 0 0 0 0 0 0 0 0 0 0 0 0 0 0 0 0 0 0 0 0 0 0 0 0 0
0 0 10 10 13 19 13 13 10 10 10 6 3 0 0 0 0 0 0 0 0 0 0 0 0 0 0 0 0 0 0 0 0 0 0 0 0 0 0 0 0 0 0
0 0 6 6 10 6 6 6 6 0 0 0 0 0 0 0 0 0 0 0 0 0 0 0 0 0 0 0 0 0 0 0 0 0 0 0 0 0 0 0 0 0 0
0 0 6 6 6 6 3 3 3 0 0 0 0 0 0 0 0 0 0 0 0 0 0 0 0 0 0 0 0 0 0 0 0 0 0 0 0 0 0 0 0 0 0
0 3 6 6 6 6 3 3 0 0 0 0 0 0 0 0 0 0 0 0 0 0 0 0 0 0 0 0 0 0 0 0 0 0 0 0 0 0 0 0 0 0 0
3 3 6 6 6 3 3 0 0 0 0 0 0 0 0 0 0 0 0 0 0 0 0 0 0 0 0 0 0 0 0 0 0 0 0 0 0 0 0 0 0 0 0
0 3 6 6 3 3 3 0 0 0 0 0 0 0 0 0 0 0 0 0 0 0 0 0 0 0 0 0 0 0 0 0 0 0 0 0 0 0 0 0 0 0 0
3 3 3 6 3 3 0 0 0 0 0 0 0 0 0 0 0 0 0 0 0 0 0 0 0 0 0 0 0 0 0 0 0 0 0 0 0 0 0 0 0 0 0
3 3 6 6 3 3 0 0 0 0 0 0 0 0 0 0 0 0 0 0 0 0 0 0 0 0 0 0 0 0 0 0 0 0 0 0 0 0 0 0 0 0 0
3 3 3 6 3 3 0 0 0 0 0 0 0 0 0 0 0 0 0 0 0 0 0 0 0 0 0 0 0 0 0 0 0 0 0 0 0 0 0 0 0 0 0
3 3 3 3 3 3 0 0 0 0 0 0 0 0 0 0 0 0 0 0 0 0 0 0 0 0 0 0 0 0 0 0 0 0 0 0 0 0 0 0 0 0 0
3 3 3 3 3 3 0 0 0 0 0 0 0 0 0 0 0 0 0 0 0 0 0 0 0 0 0 0 0 0 0 0 0 0 0 0 0 0 0 0 0 0 0
0 3 3 3 3 0 0 0 0 0 0 0 0 0 0 0 0 0 0 0 0 0 0 0 0 0 0 0 0 0 0 0 0 0 0 0 0 0 0 0 0 0 0
0 3 3 3 3 0 0 0 0 0 0 0 0 0 0 0 0 0 0 0 0 0 0 0 0 0 0 0 0 0 0 0 0 0 0 0 0 0 0 0 0 0 0
0 0 3 3 3 0 0 0 0 0 0 0 0 0 0 0 0 0 0 0 0 0 0 0 0 0 0 0 0 0 0 0 0 0 0 0 0 0 0 0 0 0 0
0 0 0 3 3 0 0 0 0 0 0 0 0 0 0 0 0 0 0 0 0 0 0 0 0 0 0 0 0 0 0 0 0 0 0 0 0 0 0 0 0 0 0
0 0 0 0 0 0 0 0 0 0 0 0 0 0 0 0 0 0 0 0 0 0 0 0 0 0 0 0 0 0 0 0 0 0 0 0 0 0 0 0 0 0 0
0 0 0 0 0 0 0 0 0 0 0 0 0 0 0 0 0 0 0 0 0 0 0 0 0 0 0 0 0 0 0 0 0 0 0 0 0 0 0 0 0 0 0
0 0 0 0 0 0 0 0 0 0 0 0 0 0 0 0 0 0 0 0 0 0 0 0 0 0 0 0 0 0 0 0 0 0 0 0 0 0 0 0 0 0 0
Height
5851 5853 5856 5858 5860 5862 5864 5865 5867 5868 5869 5870 5871 5872 5872 5873 5874 5874 5875 5875 5876 5876 5876 5876 5876 5875 5875 5875 5874 5874 5873 5872 5871 5870 5868 5867 5866 5864 5863 5861 5859 5858 5856
5847 5850 5853 5855 5857 5859 5861 5863 5864 5866 5867 5868 5869 5870 5871 5872 5872 5873 5874 5874 5875 5875 5875 5875 5874 5874 5874 5873 5873 5872 5871 5870 5869 5868 5866 5865 5864 5862 5860 5859 5857 5855 5852
5843 5846 5848 5851 5853 5855 5857 5859 5861 5863 5864 5866 5867 5868 5869 5870 5870 5871 5872 5873 5873 5873 5873 5873 5873 5872 5872 5871 5871 5870 5869 5868 5867 5866 5864 5863 5861 5859 5858 5856 5854 5851 5849
5839 5841 5844 5847 5849 5851 5854 5856 5858 5860 5861 5863 5864 5865 5867 5868 5869 5869 5870 5871 5871 5872 5872 5872 5871 5871 5870 5870 5869 5868 5867 5866 5865 5863 5862 5860 5859 5857 5855 5852 5850 5848 5845
5834 5837 5839 5842 5845 5847 5850 5852 5854 5856 5858 5860 5861 5863 5864 5865 5866 5867 5868 5869 5869 5870 5870 5869 5869 5869 5868 5868 5867 5866 5865 5864 5862 5861 5859 5858 5856 5854 5851 5849 5846 5844 5841
5829 5832 5835 5838 5840 5843 5846 5848 5850 5853 5855 5857 5858 5860 5861 5863 5864 5865 5866 5866 5867 5867 5867 5867 5867 5867 5866 5865 5865 5864 5863 5861 5860 5858 5857 5855 5853 5850 5848 5845 5843 5840 5837
5823 5826 5830 5833 5836 5839 5841 5844 5847 5849 5851 5853 5855 5857 5858 5860 5861 5862 5863 5864 5865 5865 5865 5865 5865 5864 5864 5863 5862 5861 5860 5859 5857 5856 5854 5852 5849 5847 5844 5842 5839 5836 5832
5817 5821 5824 5827 5831 5834 5837 5840 5842 5845 5847 5849 5851 5853 5855 5857 5858 5859 5860 5861 5862 5862 5862 5862 5862 5862 5861 5861 5860 5859 5857 5856 5854 5853 5851 5848 5846 5843 5841 5837 5834 5831 5828
5810 5814 5818 5822 5825 5829 5832 5835 5838 5841 5843 5845 5847 5850 5851 5853 5855 5856 5857 5858 5859 5860 5860 5860 5859 5859 5859 5858 5857 5856 5854 5853 5851 5849 5847 5845 5842 5839 5836 5833 5830 5826 5823
5804 5808 5812 5816 5820 5823 5827 5830 5833 5836 5839 5841 5844 5846 5848 5850 5851 5853 5854 5855 5856 5856 5857 5857 5856 5856 5856 5855 5854 5853 5851 5850 5848 5846 5844 5841 5838 5835 5832 5829 5825 5822 5818
5797 5802 5806 5810 5814 5818 5821 5825 5828 5831 5834 5837 5839 5842 5844 5846 5848 5849 5851 5852 5853 5853 5853 5853 5853 5853 5853 5852 5851 5850 5848 5846 5844 5842 5840 5837 5834 5831 5828 5824 5821 5817 5813
5790 5795 5799 5804 5808 5812 5816 5819 5823 5826 5830 5833 5835 5837 5840 5842 5844 5845 5847 5848 5849 5850 5850 5850 5850 5850 5849 5848 5848 5846 5844 5843 5840 5838 5836 5833 5830 5827 5823 5820 5816 5812 5808
5782 5787 5792 5797 5801 5805 5809 5814 5817 5821 5825 5828 5830 5833 5835 5837 5840 5841 5843 5844 5845 5846 5846 5846 5846 5846 5845 5845 5844 5842 5841 5839 5836 5834 5831 5829 5825 5822 5819 5815 5811 5807 5803
5774 5779 5784 5789 5794 5798 5803 5807 5812 5816 5819 5822 5825 5828 5831 5833 5835 5837 5838 5840 5841 5842 5842 5842 5842 5842 5842 5841 5840 5838 5836 5834 5832 5830 5827 5824 5821 5817 5814 5810 5806 5802 5797
5765 5771 5776 5781 5787 5791 5796 5801 5805 5810 5813 5817 5820 5823 5825 5828 5830 5832 5834 5835 5837 5837 5838 5838 5838 5838 5837 5837 5835 5834 5832 5830 5827 5825 5822 5819 5816 5812 5808 5804 5800 5796 5792
5757 5763 5768 5773 5779 5784 5789 5794 5799 5803 5807 5811 5814 5817 5820 5823 5825 5828 5830 5831 5832 5833 5834 5834 5834 5833 5833 5832 5831 5829 5827 5825 5823 5820 5817 5814 5811 5807 5803 5799 5795 5791 5786
5748 5754 5760 5765 5771 5777 5782 5787 5792 5797 5801 5805 5809 5812 5815 5818 5820 5823 5824 5826 5827 5828 5829 5829 5829 5829 5828 5827 5826 5824 5822 5820 5818 5815 5812 5809 5806 5802 5798 5794 5789 5785 5781
5738 5745 5751 5757 5763 5769 5774 5780 5785 5790 5794 5798 5802 5806 5809 5812 5815 5817 5819 5821 5822 5823 5824 5824 5824 5824 5823 5822 5821 5819 5817 5815 5812 5810 5807 5804 5800 5796 5792 5788 5784 5779 5775
5729 5736 5743 5749 5755 5761 5766 5772 5778 5783 5788 5792 5796 5800 5803 5806 5809 5812 5814 5816 5817 5818 5819 5819 5819 5819 5818 5817 5816 5814 5812 5809 5807 5804 5801 5798 5794 5791 5787 5782 5778 5773 5768
5720 5727 5734 5740 5747 5753 5758 5764 5770 5776 5780 5785 5789 5793 5797 5800 5803 5806 5808 5810 5812 5813 5813 5814 5814 5814 5813 5812 5810 5808 5806 5804 5801 5799 5795 5792 5789 5785 5781 5776 5772 5767 5762
5711 5718 5725 5732 5739 5745 5751 5757 5763 5769 5774 5778 5783 5787 5790 5794 5797 5800 5802 5804 5806 5807 5807 5808 5808 5808 5807 5806 5804 5803 5801 5798 5796 5793 5789 5786 5783 5779 5774 5770 5765 5760 5755
5702 5709 5717 5724 5731 5738 5744 5750 5756 5761 5766 5771 5775 5779 5783 5787 5790 5793 5796 5798 5800 5801 5802 5802 5802 5802 5801 5800 5799 5797 5795 5793 5790 5787 5783 5780 5776 5772 5768 5763 5758 5753 5748
5693 5701 5709 5716 5723 5730 5736 5741 5747 5753 5758 5764 5768 5773 5777 5780 5783 5786 5789 5791 5793 5795 5796 5796 5796 5796 5795 5794 5793 5791 5789 5787 5784 5781 5777 5774 5770 5766 5761 5756 5751 5746 5740
5684 5692 5700 5707 5714 5721 5727 5734 5740 5747 5752 5757 5761 5766 5770 5773 5777 5780 5782 5785 5786 5788 5789 5790 5790 5789 5789 5788 5786 5785 5783 5780 5778 5775 5771 5767 5763 5759 5754 5749 5744 5738 5732
5674 5682 5691 5698 5705 5712 5719 5726 5733 5739 5745 5749 5754 5758 5762 5766 5769 5772 5775 5778 5780 5781 5782 5783 5783 5783 5782 5781 5780 5778 5776 5773 5771 5768 5765 5760 5756 5751 5747 5742 5736 5730 5724
5663 5672 5680 5688 5697 5704 5711 5718 5725 5731 5737 5742 5747 5751 5755 5759 5762 5765 5768 5770 5772 5774 5775 5776 5776 5776 5775 5774 5773 5771 5769 5767 5764 5761 5758 5754 5749 5744 5739 5734 5728 5722 5716
Wind_Speed
26 25 24 22 21 20 18 16 15 13 12 11 9 8 8 7 6 5 5 4 5 5 6 6 7 8 9 10 10 11 12 13 14 15 15 16 17 17 18 19 20 21 22
27 26 25 24 22 21 20 18 16 15 14 12 11 10 9 8 7 6 5 5 5 6 6 7 8 9 10 10 11 12 13 14 15 15 16 16 17 18 19 20 21 22 24
28 27 26 26 24 23 22 20 18 16 15 13 12 11 11 10 8 7 7 6 6 7 7 8 9 10 11 11 12 12 13 15 15 16 16 17 18 19 20 22 23 24 26
30 29 28 27 26 25 23 22 20 18 16 15 14 13 12 11 10 9 8 8 8 8 8 9 10 11 11 12 12 13 14 15 16 17 17 18 19 20 22 23 25 26 27
31 30 29 29 27 26 25 24 22 20 18 17 15 14 14 13 11 10 10 9 9 9 9 10 11 11 11 12 13 14 15 16 17 17 18 19 20 22 23 25 26 28 29
33 32 31 30 29 28 27 25 24 22 20 18 17 16 15 14 13 12 11 11 10 10 10 11 11 12 12 13 14 14 15 16 17 18 19 20 21 23 25 26 28 29 30
34 33 32 31 30 29 28 27 25 23 22 20 18 18 17 16 14 13 12 12 11 11 11 12 12 12 13 13 14 15 16 17 18 19 20 21 23 24 26 28 29 30 31
36 35 34 33 32 31 29 28 26 25 24 22 20 19 18 17 16 14 13 13 13 12 12 12 12 13 13 14 15 16 16 17 18 20 21 23 24 26 28 29 30 31 32
38 37 35 34 33 32 31 29 28 27 25 23 22 20 19 18 17 16 15 14 14 13 13 13 13 13 14 14 15 16 17 18 19 21 22 24 25 27 29 30 31 31 32
40 38 37 35 34 34 32 31 29 28 26 25 23 22 21 20 18 17 16 15 15 14 14 14 14 14 14 15 16 17 18 19 21 22 24 25 27 28 30 31 31 32 33
41 40 38 37 36 35 34 33 31 29 28 26 25 23 22 21 20 18 17 16 16 15 15 15 15 15 15 16 17 18 19 20 22 23 25 26 28 29 30 31 32 33 34
42 41 40 39 38 37 36 35 33 31 29 27 26 25 23 22 21 20 19 18 17 16 16 16 16 16 16 17 18 20 20 22 23 24 26 27 29 30 31 32 33 34 35
43 42 42 40 39 39 37 36 35 33 31 29 27 26 25 24 23 21 20 19 18 17 17 17 17 17 18 19 20 21 22 23 24 25 27 28 30 31 32 33 34 35 35
44 43 43 42 41 40 39 38 36 34 32 30 29 27 26 25 24 23 22 20 19 19 18 18 18 18 19 20 21 22 23 24 25 26 28 30 31 32 33 34 35 35 36
45 44 44 43 42 41 40 39 38 36 34 32 30 29 28 26 25 24 23 21 21 20 19 19 19 19 20 21 22 24 24 25 26 28 29 30 32 33 34 34 35 36 37
46 45 45 44 43 42 41 40 39 37 36 34 32 30 29 28 26 25 24 22 22 21 21 20 20 20 21 22 23 25 25 26 27 29 30 31 33 33 34 35 36 37 37
48 46 45 44 44 42 41 41 40 38 37 35 33 32 30 29 27 26 24 24 23 22 22 22 21 21 22 23 24 25 26 27 28 30 31 32 33 34 34 35 36 37 38
49 48 46 45 44 43 42 41 40 39 38 36 35 33 32 30 28 27 25 25 24 23 23 23 22 23 23 24 25 26 27 28 29 31 32 33 34 34 35 36 37 38 39
50 48 47 46 45 44 43 42 41 40 38 37 36 35 33 31 30 28 27 26 25 24 24 23 23 24 24 25 26 27 28 29 30 31 33 33 34 35 36 37 38 39 40
51 50 48 47 46 45 44 43 41 40 39 38 37 35 34 33 31 30 28 27 26 25 25 25 25 25 25 26 27 28 29 29 31 32 33 34 34 35 37 38 39 40 41
53 51 50 48 46 46 45 43 42 40 39 39 37 36 35 34 33 31 29 28 27 26 26 26 26 26 26 27 28 29 29 30 31 32 33 34 35 36 38 39 40 42 43
54 52 50 48 47 46 45 44 43 41 40 39 38 37 36 35 34 32 30 29 28 28 27 27 27 27 27 27 28 29 30 31 32 33 34 35 36 37 39 40 42 43 44
54 53 51 49 48 47 46 45 44 42 41 39 38 37 36 35 34 33 32 30 29 29 28 28 28 28 28 28 29 30 30 31 32 33 34 36 37 38 39 41 43 44 45
54 53 52 50 49 48 47 45 44 42 40 39 38 37 36 35 35 34 33 32 31 30 29 29 29 29 29 29 30 30 32 33 33 34 35 36 38 39 40 42 43 45 46
54 54 53 52 50 49 48 46 44 43 41 40 38 37 36 36 35 34 33 32 32 30 30 30 30 30 30 30 31 31 32 33 34 35 35 37 38 40 41 42 44 45 47
55 55 55 53 51 49 48 46 45 43 42 40 39 38 37 36 35 34 33 33 32 31 31 31 31 31 31 31 32 33 33 34 34 35 36 37 39 41 42 43 44 46 48
Wind_Direction
229 229 229 227 226 225 224 222 222 223 225 227 231 232 231 229 238 250 263 280 294 307 316 318 320 320 322 322 323 325 326 327 326 327 327 327 327 327 328 327 326 325 324
231 230 230 228 227 226 225 225 225 226 228 230 233 232 230 231 239 249 260 275 286 298 307 310 313 313 316 317 319 322 324 325 325 326 326 326 326 327 327 327 326 325 324
230 229 229 228 227 227 226 226 227 228 229 231 233 233 232 234 240 248 256 266 277 291 299 304 308 309 312 314 317 319 321 322 323 324 324 323 324 326 326 326 326 325 324
228 228 228 227 227 227 227 227 228 228 230 231 234 234 234 235 239 246 253 262 273 286 294 300 304 305 309 312 314 316 319 321 323 324 324 324 325 326 326 326 326 325 324
228 228 228 227 226 226 227 227 227 228 229 230 233 235 236 236 240 244 251 261 271 282 289 296 300 303 307 309 312 315 318 321 322 323 324 325 326 326 326 326 325 324 323
228 227 227 227 226 226 226 227 227 228 228 230 232 235 236 237 240 245 251 260 270 279 287 292 296 300 303 308 312 314 317 320 321 323 325 326 326 326 326 326 325 324 323
228 227 226 226 227 226 226 226 227 227 228 230 232 234 236 237 240 245 252 259 267 276 284 289 292 296 301 306 311 314 317 319 321 324 325 325 326 326 326 326 325 324 324
228 227 226 226 226 226 226 226 227 227 228 230 232 235 236 238 240 245 251 257 265 273 281 286 289 294 298 304 310 314 317 319 322 323 324 325 326 326 326 326 325 325 324
227 226 225 225 225 225 225 226 226 227 229 231 232 234 235 237 240 245 250 256 264 272 279 284 286 291 295 301 308 313 316 319 321 323 324 324 325 326 327 326 325 325 324
226 226 225 224 225 225 225 225 226 227 229 231 233 234 234 236 240 245 249 255 263 271 277 281 284 288 293 300 306 311 314 317 320 321 323 324 325 325 326 326 325 324 324
226 226 225 224 224 225 225 225 226 227 229 231 233 233 234 236 239 243 248 254 263 270 275 279 283 286 291 298 305 309 313 316 318 320 321 322 323 324 325 325 325 324 324
226 225 225 225 225 225 225 225 226 227 228 231 232 233 234 236 239 243 248 254 261 268 273 279 283 285 291 297 303 307 311 315 317 319 320 321 322 323 324 324 325 325 325
225 225 225 225 225 224 224 225 226 227 228 229 230 232 234 237 239 243 247 253 260 266 272 278 282 285 290 295 301 305 309 313 316 317 319 320 322 323 323 324 325 325 325
225 225 224 225 225 224 223 225 226 227 227 228 230 233 234 237 239 243 247 252 259 265 271 277 282 286 289 294 299 304 308 312 314 316 317 319 321 322 323 323 324 324 324
224 224 224 224 225 224 223 224 225 226 227 228 230 232 234 236 239 242 247 252 258 264 270 276 282 286 289 293 298 303 307 310 312 314 316 318 320 321 322 322 323 323 324
223 224 224 224 224 224 224 224 225 225 226 228 229 232 234 236 239 243 247 253 258 264 269 274 281 286 290 293 297 302 305 308 310 313 315 316 318 320 321 322 322 322 323
223 224 223 223 223 223 224 224 224 225 225 227 229 231 233 236 239 243 247 253 258 264 269 274 280 285 290 293 297 301 304 306 309 311 313 315 317 318 320 321 321 321 322
222 223 222 222 222 223 223 224 224 224 225 228 230 231 233 236 239 243 247 252 258 264 269 273 279 284 289 292 296 300 302 305 308 310 312 314 315 317 319 319 320 321 321
221 222 222 221 222 222 222 223 224 224 226 228 230 231 233 236 239 243 247 252 258 264 268 272 278 283 288 291 295 298 301 304 307 309 311 312 314 316 317 318 319 320 320
220 220 221 220 221 221 221 223 224 224 226 228 230 231 233 236 239 243 248 252 258 263 267 271 277 282 286 290 294 297 300 303 306 308 309 311 312 315 316 317 318 319 319
220 220 220 220 220 221 222 223 224 225 226 228 230 232 234 236 239 244 247 252 257 262 265 270 276 281 286 289 292 296 298 302 304 307 308 310 311 314 315 316 317 317 317
219 220 220 220 220 221 222 223 223 224 225 227 229 231 233 236 239 243 247 251 257 261 265 269 275 280 284 288 291 294 298 301 303 306 307 309 311 312 314 315 316 316 317
219 219 220 220 220 221 221 222 223 224 226 227 229 231 233 236 239 243 247 251 256 260 264 269 274 278 283 287 291 293 297 300 302 304 306 308 310 311 312 314 315 316 316
217 219 220 219 220 220 221 222 223 224 225 226 228 231 234 237 240 243 247 251 255 258 263 268 274 278 282 286 289 292 296 299 301 303 305 307 309 310 312 313 314 315 315
217 217 218 219 220 220 220 221 222 223 224 226 228 231 234 237 240 244 247 250 254 258 262 268 273 277 281 284 288 292 296 298 300 303 305 307 309 310 311 313 314 315 315
216 216 217 218 218 219 220 221 222 223 225 227 228 232 235 238 241 244 246 250 253 258 262 266 271 276 279 282 287 291 295 297 299 302 304 306 308 309 311 313 313 314 315